Temperature
21 19 18 19 19 20 20 20 19 19 20 19 18 18 18 18 18 18 18 18 19 19 19 19 19 19 19 18 18 18 18 17 17 17 16 16 16 16 15 15 15 15 15 15
19 19 20 21 21 21 20 19 19 19 20 19 18 18 18 18 18 18 18 18 18 18 18 18 18 19 18 18 18 18 17 17 17 16 16 16 16 15 15 15 15 15 14 14
19 20 22 22 21 21 20 19 19 19 19 19 18 17 17 17 18 18 18 18 18 18 18 18 18 18 18 18 18 17 17 17 17 16 16 16 16 15 15 15 15 14 14 14
20 21 21 21 21 21 20 20 20 19 18 17 18 16 16 16 16 16 17 17 18 18 18 18 18 18 18 17 17 17 17 17 16 16 16 16 15 15 15 15 15 14 14 14
20 21 21 21 21 21 20 20 20 19 18 17 17 16 16 16 16 16 16 17 17 18 18 17 17 17 17 17 17 17 17 16 16 16 16 16 15 15 15 15 14 14 14 14
20 21 21 21 21 21 20 19 18 16 16 16 17 16 16 15 16 16 16 17 17 17 17 17 17 17 17 16 16 16 16 16 15 15 15 15 15 15 15 14 14 14 14 14
19 20 21 21 21 20 19 17 16 16 15 16 16 16 16 16 17 17 16 16 17 17 17 17 17 16 16 16 16 16 15 15 15 15 15 15 14 14 14 14 14 13 13 13
18 18 19 20 20 19 19 17 16 16 16 15 16 16 16 17 17 17 17 16 16 16 16 16 16 16 16 16 15 15 15 15 15 15 14 14 14 14 14 13 13 13 13 13
17 17 19 20 20 20 19 17 16 15 16 15 15 15 16 16 16 16 16 16 16 16 16 16 16 16 16 15 15 15 15 15 14 14 14 14 14 13 13 13 13 13 13 13
18 17 18 20 20 20 19 18 15 15 15 15 15 15 15 16 15 15 15 15 15 16 16 16 15 15 15 15 15 15 15 14 14 14 14 13 13 13 13 13 13 13 12 12
17 17 17 18 18 18 18 18 16 14 14 14 14 15 16 15 15 14 14 15 15 15 15 15 15 15 15 15 14 14 14 14 14 14 13 13 13 13 13 13 12 12 12 12
16 14 15 16 17 18 18 17 16 15 15 13 13 14 16 15 15 15 15 15 15 15 15 15 15 14 14 14 14 14 14 14 14 13 13 13 13 13 12 12 12 12 12 12
16 14 14 15 16 17 18 18 16 14 13 13 13 14 16 15 15 15 15 15 15 15 15 14 14 14 14 14 14 13 13 13 13 13 13 12 12 12 12 12 12 12 11 11
16 14 14 15 15 16 17 17 17 15 13 13 14 14 15 14 14 14 14 15 15 14 14 14 14 13 13 13 13 13 13 13 12 12 12 12 12 12 12 12 11 11 11 11
15 14 15 15 16 16 16 17 17 16 14 14 14 14 14 14 14 14 15 14 14 14 14 13 13 13 13 13 13 13 12 12 12 12 12 12 11 11 11 11 11 11 11 10
13 14 15 15 16 16 16 16 16 16 16 15 15 14 14 15 15 14 14 14 13 13 13 13 13 13 12 12 12 12 12 12 12 12 11 11 11 11 11 11 11 10 10 10
13 13 14 13 14 15 14 15 15 15 15 15 14 14 14 13 14 14 14 14 13 13 13 13 13 13 12 12 12 12 12 12 12 11 11 11 11 10 10 10 10 10 10 9
13 12 11 12 14 14 14 15 15 15 15 15 15 14 14 14 14 15 15 14 14 13 13 13 13 13 12 12 12 12 11 11 11 11 11 11 10 10 10 10 10 9 9 9
12 12 11 11 12 13 14 15 15 15 14 14 14 13 14 14 13 13 14 14 14 14 13 13 13 12 12 12 12 12 11 11 11 11 10 10 10 10 10 10 9 9 9 9
12 11 11 11 12 12 14 15 16 15 13 13 13 13 13 13 11 11 13 14 14 13 13 13 12 12 12 12 11 11 11 11 11 10 10 10 10 9 9 9 9 9 9 8
12 11 11 11 11 12 14 15 15 14 13 14 14 14 13 12 12 13 13 13 13 13 13 12 12 12 11 11 11 11 11 11 10 10 10 9 9 9 9 9 8 8 8 8
12 11 11 10 11 12 14 14 13 13 15 15 14 14 14 14 13 13 13 13 12 12 12 12 12 11 11 11 11 11 10 10 10 10 10 9 9 9 8 8 8 8 8 8
11 12 11 11 12 13 14 15 15 15 15 15 15 14 14 13 13 13 12 12 12 12 12 11 11 11 11 11 10 10 10 10 10 9 9 9 9 9 8 8 8 8 8 7
11 11 11 11 11 13 14 15 15 15 15 15 15 14 14 13 13 12 12 12 12 11 11 11 11 11 10 10 10 10 10 10 9 9 9 9 8 8 8 8 7 7 7 7
11 11 10 10 11 12 13 14 14 14 14 14 14 13 13 13 12 12 12 11 11 11 11 11 10 10 10 10 10 10 9 9 9 9 9 8 8 8 8 7 7 7 7 7
10 11 10 11 12 11 13 14 14 14 13 13 13 12 12 12 12 12 11 11 11 11 10 10 10 10 10 9 9 9 9 9 9 8 8 8 8 8 7 7 7 7 7 7
Wind_Speed
2 4 2 6 7 6 5 3 2 3 3 2 3 3 3 3 3 4 4 5 5 4 3 2 4 5 5 4 5 5 5 4 4 3 3 2 2 1 1 2 4 4 4 4
5 1 6 5 3 3 2 2 1 1 1 2 2 3 3 3 6 7 6 6 5 4 1 2 3 4 5 5 4 4 4 4 4 3 3 3 2 1 1 2 3 4 4 3
4 5 2 1 1 2 1 4 4 3 2 1 2 3 3 3 2 3 4 5 6 6 5 4 3 3 4 4 4 5 4 4 4 4 3 3 2 2 2 2 1 2 2 3
2 3 0 1 1 2 2 3 4 3 1 3 2 3 6 4 2 3 3 4 5 4 4 4 4 4 3 3 3 4 4 4 4 5 5 6 4 2 2 1 1 1 1 2
2 1 0 1 3 3 5 3 2 3 2 1 2 3 6 2 3 5 5 5 5 5 5 4 4 4 4 3 3 3 4 3 3 4 5 5 3 2 1 0 1 1 1 1
3 2 3 4 3 1 1 4 4 4 4 2 5 5 6 5 7 6 6 6 5 5 4 4 3 3 3 2 3 3 4 3 2 3 3 4 4 3 2 1 0 1 1 1
4 4 2 1 1 3 5 6 4 4 3 5 3 3 6 6 6 7 7 6 5 5 5 4 3 3 3 3 3 3 4 3 3 3 3 3 4 4 3 3 2 1 0 1
0 5 3 0 3 3 2 7 5 3 4 5 4 3 5 4 2 5 6 5 5 5 5 5 4 4 3 3 3 3 3 3 3 3 2 2 3 3 2 3 3 3 2 3
3 5 4 3 2 5 3 3 6 5 2 3 4 4 5 2 3 3 4 4 4 4 5 5 4 4 3 2 3 4 4 3 2 3 2 2 2 2 2 2 3 2 2 2
4 3 5 3 2 1 4 5 4 3 2 4 5 4 5 4 3 3 4 4 4 4 4 4 4 3 2 2 2 4 4 4 3 3 2 2 2 2 2 2 3 3 3 2
2 2 4 2 2 4 1 2 3 3 4 4 4 6 5 7 7 6 5 5 5 5 5 5 4 3 2 1 1 3 3 3 2 2 2 1 1 2 1 2 3 4 3 3
1 3 2 6 6 3 4 5 5 4 4 4 3 7 5 4 5 5 5 4 4 4 4 5 4 3 2 1 1 2 2 2 3 3 2 2 2 2 2 2 3 3 4 4
2 4 2 6 6 4 0 2 3 4 3 4 4 7 3 1 2 3 4 4 4 3 3 3 2 2 2 2 2 2 2 2 3 3 2 2 2 3 3 3 3 3 3 4
3 3 6 7 7 4 5 5 3 3 3 5 8 8 6 4 3 3 4 5 5 4 4 3 2 3 3 2 2 3 3 3 3 3 3 3 4 4 4 4 4 4 4 4
4 3 6 8 7 5 7 8 6 6 7 8 9 9 9 7 7 6 5 5 5 4 4 3 3 3 2 2 2 3 3 3 3 3 3 5 5 4 4 4 4 4 4 4
2 2 2 4 6 5 8 9 8 8 7 7 6 8 6 5 3 4 5 6 6 5 5 4 4 3 3 4 4 3 4 4 3 4 4 4 4 4 4 4 3 2 3 3
2 3 1 4 5 4 7 7 7 6 5 6 8 9 4 3 6 8 7 8 7 6 5 5 5 5 5 5 4 4 5 4 3 4 3 4 4 4 4 4 3 3 3 2
5 4 2 2 1 6 8 4 4 5 5 5 5 5 5 5 5 4 5 6 6 5 5 5 5 5 4 4 4 4 3 3 4 4 4 4 4 5 4 4 4 3 3 3
7 6 3 2 4 7 7 4 3 3 5 3 3 2 1 2 2 2 2 3 6 6 6 5 5 4 4 4 4 3 3 3 4 4 4 4 4 5 4 5 5 4 3 3
4 5 4 3 3 6 7 5 1 2 4 4 3 3 2 2 0 5 4 2 3 3 3 3 3 2 3 4 3 3 4 4 5 6 5 4 4 4 5 6 5 4 3 4
2 2 4 5 6 8 7 3 2 2 7 4 4 4 3 4 5 4 3 2 2 2 3 2 2 2 3 3 2 3 4 6 6 5 4 4 4 4 5 4 4 3 3 3
6 5 5 5 5 9 4 2 4 7 3 3 3 3 4 3 2 1 2 2 2 1 1 2 2 2 3 2 2 3 5 6 4 4 3 3 3 3 3 3 3 3 3 3
6 7 6 8 8 6 4 5 5 4 3 4 4 4 4 3 3 2 3 3 3 3 3 2 2 2 3 2 3 4 5 4 3 3 3 3 3 3 3 3 3 2 2 3
5 2 3 4 6 5 4 4 3 3 4 4 4 4 4 4 4 3 3 3 2 2 2 2 2 2 3 4 4 4 4 2 2 3 3 3 3 3 2 2 3 3 3 4
6 2 3 6 6 4 5 4 4 3 2 2 3 4 5 5 4 4 4 4 4 3 2 2 3 4 5 4 4 3 2 2 2 3 3 3 3 3 2 2 3 4 4 5
6 6 6 9 8 6 7 7 5 4 4 5 4 3 4 5 5 5 5 4 4 4 3 3 3 4 4 4 3 3 2 2 2 2 3 3 3 3 3 3 2 3 3 4
Wind_Direction
33 80 182 212 198 189 179 180 225 247 213 147 180 205 224 210 184 188 196 188 178 182 200 158 149 143 129 121 123 129 128 125 118 122 122 114 106 89 70 61 68 83 92 107
37 256 231 215 212 164 153 149 249 300 306 148 183 240 242 214 199 194 192 190 179 168 140 122 132 128 132 129 132 133 140 142 138 143 155 157 157 155 133 61 55 71 80 98
186 245 240 154 132 108 205 179 201 223 337 43 102 318 286 281 223 203 193 183 175 165 170 167 142 134 135 139 148 149 158 150 142 135 122 106 82 57 55 43 21 24 74 81
241 271 62 116 226 164 236 224 191 187 127 255 161 253 267 242 212 211 207 180 181 174 163 164 153 142 143 160 152 144 149 144 144 137 134 134 136 153 206 209 214 331 55 82
279 268 134 229 249 198 215 227 210 215 186 275 253 201 269 227 217 225 213 189 181 174 160 156 160 164 161 155 130 127 132 131 143 143 146 146 143 171 165 98 73 346 354 45
253 249 197 212 245 204 143 40 23 47 77 279 241 191 256 224 210 205 204 190 174 166 152 145 145 135 130 132 125 121 120 126 128 134 147 150 152 150 123 98 76 318 329 351
329 323 303 134 46 9 68 74 25 356 356 257 274 193 246 239 206 189 184 187 175 162 150 145 142 128 122 128 132 125 131 126 133 134 155 164 163 166 173 181 187 196 279 299
260 289 290 313 167 186 156 136 156 211 244 282 322 240 260 265 203 159 154 158 156 160 163 159 163 159 142 141 145 135 130 129 139 142 151 157 158 171 191 199 190 194 214 232
183 256 287 257 212 152 150 178 172 158 244 268 279 287 306 10 66 107 132 143 159 171 175 169 163 158 148 139 163 158 146 142 158 161 152 144 172 179 192 200 193 201 220 228
161 246 280 286 18 328 170 160 101 127 210 267 282 262 236 216 195 185 179 181 189 193 190 176 171 166 160 154 168 161 154 164 178 175 166 156 198 207 213 200 199 208 218 222
108 172 299 339 216 229 155 130 129 145 173 184 261 270 233 203 195 189 196 195 189 199 202 184 174 175 172 153 140 157 165 162 175 183 182 182 215 231 229 216 220 218 217 213
105 124 256 266 271 236 184 183 156 171 238 196 207 265 282 195 186 182 190 192 190 190 194 189 176 167 160 155 175 186 194 190 199 193 192 205 223 234 228 239 237 227 226 227
110 105 15 335 333 349 275 196 161 150 155 188 203 260 308 103 180 189 186 196 192 181 180 193 184 174 184 188 212 224 218 217 214 197 205 221 234 241 240 241 243 233 228 236
112 137 182 212 232 248 269 275 242 164 194 228 227 246 274 258 228 228 213 204 188 182 175 182 198 202 205 212 222 228 235 229 221 209 210 221 233 236 240 241 239 239 232 232
107 194 225 240 249 249 255 260 246 230 217 221 243 238 245 233 220 215 209 199 181 182 181 184 193 219 225 232 240 237 232 238 229 216 221 230 236 240 240 238 239 243 237 234
107 209 257 273 263 267 272 260 249 247 241 236 248 252 244 226 201 205 202 189 192 200 207 206 201 207 226 233 240 249 245 241 224 218 231 242 239 241 238 232 228 237 242 238
178 173 226 274 293 326 276 244 228 232 223 204 229 244 236 209 211 207 202 194 198 206 213 217 215 215 225 235 236 242 243 234 219 224 239 244 235 235 236 234 221 220 234 235
173 159 169 248 344 245 248 255 227 230 246 232 227 235 213 211 217 212 202 197 202 208 211 221 229 235 236 241 247 243 234 225 226 230 238 243 241 240 237 225 221 223 228 223
176 163 165 180 232 269 284 270 211 213 264 258 217 222 191 127 68 316 253 203 206 209 212 220 223 232 242 250 247 227 227 228 233 235 236 242 237 235 231 229 227 228 223 228
121 132 153 174 210 244 247 258 218 101 276 267 182 178 173 113 237 269 263 224 216 208 208 220 223 231 242 254 242 213 217 223 232 234 236 238 230 225 227 228 229 230 226 228
107 148 190 206 230 259 255 264 83 183 248 244 194 183 178 197 226 247 238 225 201 198 208 205 195 218 239 249 228 218 221 231 236 234 233 232 227 230 230 224 226 224 223 218
191 192 203 187 215 253 247 138 185 223 239 213 201 193 196 217 225 224 208 202 194 202 217 194 194 231 249 243 212 228 241 245 240 222 222 231 237 242 236 211 225 221 211 206
209 200 199 200 221 250 225 213 228 202 206 219 207 216 191 195 213 225 223 216 216 213 215 210 204 240 269 257 220 230 253 260 242 227 227 231 237 238 216 202 212 225 217 208
264 217 191 250 262 265 260 264 261 228 216 215 208 201 186 195 211 220 220 219 224 234 233 228 212 238 268 267 246 240 250 247 218 223 231 227 219 232 235 212 204 209 222 220
237 221 234 256 265 290 281 257 253 260 243 221 216 207 197 194 213 216 222 225 222 230 230 215 224 243 259 265 262 262 247 206 219 234 234 230 224 222 229 231 232 229 225 218
221 208 215 243 235 225 249 246 240 233 239 230 223 232 229 209 213 220 228 232 226 225 229 226 236 249 260 262 266 269 240 207 209 238 242 234 226 228 225 219 267 286 263 255
Height
1510 1516 1520 1517 1515 1516 1518 1522 1526 1522 1516 1519 1523 1524 1522 1520 1520 1520 1520 1521 1522 1523 1524 1524 1525 1525 1526 1526 1526 1526 1527 1527 1528 1528 1529 1529 1529 1529 1529 1529 1530 1529 1529 1529
1516 1518 1512 1510 1511 1513 1517 1523 1525 1521 1516 1519 1523 1524 1520 1518 1518 1518 1518 1518 1519 1521 1522 1522 1523 1524 1524 1524 1525 1525 1526 1526 1526 1527 1527 1528 1528 1528 1529 1529 1529 1529 1528 1528
1517 1514 1508 1509 1511 1515 1517 1521 1523 1523 1519 1519 1523 1528 1523 1519 1517 1517 1517 1517 1518 1518 1519 1521 1521 1522 1522 1523 1523 1523 1524 1525 1525 1526 1527 1527 1528 1528 1527 1527 1527 1528 1528 1527
1513 1509 1508 1510 1512 1513 1520 1513 1515 1518 1525 1531 1527 1540 1527 1520 1518 1516 1516 1515 1516 1517 1518 1519 1519 1520 1521 1521 1522 1522 1523 1523 1524 1525 1525 1525 1525 1525 1525 1526 1526 1526 1526 1526
1514 1509 1510 1513 1511 1510 1513 1509 1512 1516 1522 1530 1528 1536 1530 1520 1520 1517 1515 1514 1515 1515 1516 1517 1518 1518 1519 1520 1521 1521 1522 1522 1523 1523 1523 1523 1524 1524 1525 1525 1525 1524 1524 1524
1511 1507 1508 1508 1506 1507 1508 1512 1515 1521 1528 1538 1529 1533 1531 1521 1515 1513 1513 1513 1513 1514 1515 1516 1517 1517 1518 1518 1519 1519 1520 1520 1521 1522 1522 1522 1522 1522 1522 1522 1522 1522 1522 1522
1516 1510 1506 1505 1509 1509 1512 1526 1540 1541 1546 1541 1526 1528 1526 1511 1507 1508 1509 1511 1512 1513 1514 1514 1515 1515 1516 1516 1516 1517 1518 1519 1519 1520 1521 1520 1520 1520 1520 1520 1520 1520 1520 1520
1525 1524 1510 1507 1509 1514 1515 1523 1541 1549 1548 1540 1527 1528 1520 1507 1505 1505 1507 1509 1511 1512 1512 1513 1514 1514 1515 1515 1515 1516 1516 1517 1517 1518 1518 1518 1519 1519 1519 1519 1518 1518 1518 1517
1525 1524 1509 1506 1505 1508 1515 1521 1522 1535 1537 1540 1534 1525 1515 1508 1507 1507 1507 1508 1509 1510 1511 1511 1512 1513 1513 1513 1514 1514 1514 1515 1515 1516 1516 1516 1517 1516 1516 1516 1516 1516 1516 1515
1515 1521 1512 1506 1505 1506 1508 1514 1526 1534 1542 1545 1535 1529 1523 1513 1511 1509 1508 1508 1509 1509 1510 1510 1511 1511 1511 1512 1512 1513 1512 1512 1513 1513 1514 1514 1514 1514 1514 1514 1513 1513 1513 1513
1513 1521 1518 1512 1512 1513 1512 1515 1521 1531 1535 1543 1543 1532 1507 1506 1505 1507 1507 1507 1507 1508 1508 1508 1509 1510 1510 1510 1510 1511 1510 1510 1511 1511 1511 1511 1511 1511 1511 1511 1510 1510 1510 1510
1513 1522 1526 1517 1508 1505 1507 1512 1519 1532 1534 1534 1538 1529 1502 1502 1502 1504 1505 1505 1505 1506 1506 1507 1507 1507 1508 1508 1508 1508 1508 1508 1508 1508 1508 1508 1508 1508 1508 1507 1507 1507 1507 1507
1513 1522 1531 1527 1520 1511 1509 1509 1513 1520 1529 1534 1536 1524 1502 1501 1502 1502 1503 1504 1504 1504 1505 1505 1505 1505 1505 1505 1505 1506 1506 1506 1505 1505 1505 1505 1505 1505 1504 1504 1504 1503 1503 1503
1510 1520 1527 1529 1522 1515 1513 1509 1509 1516 1527 1528 1523 1514 1505 1502 1502 1501 1501 1501 1502 1502 1502 1503 1503 1503 1503 1503 1503 1503 1503 1503 1503 1502 1502 1502 1501 1501 1501 1500 1500 1500 1500 1499
1510 1518 1517 1514 1511 1509 1509 1508 1507 1510 1512 1517 1511 1508 1502 1499 1498 1498 1498 1498 1499 1499 1500 1500 1500 1500 1500 1500 1499 1499 1499 1499 1499 1498 1498 1498 1498 1497 1497 1496 1496 1496 1496 1495
1510 1515 1513 1512 1508 1507 1507 1504 1503 1503 1502 1503 1503 1501 1495 1494 1495 1495 1495 1495 1495 1496 1496 1497 1497 1497 1497 1496 1496 1496 1495 1495 1495 1495 1494 1494 1494 1493 1493 1492 1492 1492 1492 1492
1512 1515 1518 1519 1510 1508 1511 1501 1499 1498 1496 1497 1500 1496 1491 1492 1492 1491 1492 1492 1492 1492 1493 1493 1493 1493 1492 1492 1492 1492 1491 1491 1491 1491 1490 1490 1489 1489 1488 1488 1488 1488 1488 1488
1509 1514 1520 1521 1516 1520 1504 1492 1491 1492 1491 1490 1489 1488 1488 1488 1488 1488 1489 1489 1488 1489 1489 1490 1489 1489 1489 1488 1488 1488 1488 1488 1487 1487 1486 1486 1485 1484 1484 1484 1484 1484 1484 1483
1501 1509 1518 1523 1521 1512 1499 1491 1489 1492 1492 1488 1487 1486 1486 1486 1487 1487 1487 1486 1486 1486 1486 1486 1486 1486 1485 1485 1484 1484 1484 1483 1483 1482 1482 1481 1480 1480 1480 1479 1479 1479 1479 1479
1500 1504 1515 1520 1519 1515 1498 1487 1484 1489 1494 1486 1484 1485 1485 1485 1490 1487 1484 1483 1483 1483 1484 1483 1483 1483 1482 1482 1481 1480 1480 1480 1479 1479 1478 1477 1476 1475 1475 1475 1475 1474 1474 1474
1506 1509 1513 1516 1516 1505 1489 1484 1485 1497 1493 1484 1482 1482 1483 1483 1483 1482 1481 1480 1480 1480 1480 1481 1480 1480 1479 1478 1477 1476 1476 1476 1476 1475 1474 1473 1472 1471 1471 1470 1470 1470 1469 1469
1504 1508 1510 1512 1514 1504 1483 1484 1487 1486 1481 1480 1480 1480 1480 1479 1479 1479 1478 1478 1477 1477 1478 1477 1477 1476 1476 1475 1474 1473 1472 1472 1472 1471 1470 1469 1468 1467 1466 1466 1465 1465 1465 1464
1497 1495 1496 1497 1494 1483 1480 1480 1479 1479 1479 1478 1478 1478 1478 1477 1477 1476 1476 1475 1475 1475 1475 1475 1474 1473 1472 1472 1471 1470 1469 1469 1468 1468 1467 1465 1465 1464 1463 1462 1461 1460 1460 1460
1490 1487 1489 1489 1483 1480 1478 1477 1477 1477 1476 1476 1476 1475 1475 1474 1474 1473 1473 1473 1472 1472 1472 1471 1471 1470 1469 1468 1468 1467 1466 1465 1464 1464 1463 1462 1461 1460 1459 1458 1458 1457 1456 1456
1486 1485 1486 1484 1480 1477 1475 1475 1475 1474 1474 1473 1473 1472 1472 1471 1471 1471 1470 1470 1469 1469 1469 1468 1468 1467 1466 1465 1464 1463 1463 1462 1461 1460 1459 1458 1457 1456 1455 1455 1454 1453 1453 1453
1480 1481 1483 1480 1475 1475 1472 1472 1472 1471 1470 1470 1469 1469 1469 1468 1467 1467 1467 1466 1466 1466 1465 1465 1464 1463 1462 1462 1461 1460 1459 1458 1457 1456 1455 1454 1453 1452 1451 1451 1450 1450 1450 1450